Tracking 19146 objects as of 24-Apr-2018
HD Live streaming from Space Station
objects crossing your sky now

FENGYUN 1C DEB

Track FENGYUN 1C DEB now!
10-day predictions


NORAD ID: 30673
Int'l Code: 1999-025AQF
Perigee: 856.0 km
Apogee: 930.9 km
Inclination: 99.3 °
Period: 102.7 minutes
Semi major axis: 7264 km
RCS: 0.0189 m2 (small)
Launch date: May 10, 1999
Source: People's Republic of China (PRC)
Launch site: Taiyaun Space Center, China (TSC)

Note: This is SATELLITE DEBRIS
aabbcc
Your satellite tracking list
Your tracking list is empty




NASA's NSSDC Master Catalog

Two Line Element Set (TLE):
1 30673U 99025AQF 18113.55038111 +.00000240 +00000-0 +18533-3 0  9991
2 30673 099.2526 127.1817 0051520 300.6260 182.0748 14.02160036574190
Source of the keplerian elements: AFSPC